Regional Weather Roundup
Issued by NWS

Home | Current Version | Previous Version | Text Only | Print | Product List | Glossary On
Versions: 1 2 3 4 5 6 7 8 9 10 11 12 13 14 15 16 17 18 19 20 21 22 23 24 25 26 27
000
ASUS46 KPQR 291910
RWROR

OREGON REGIONAL WEATHER ROUNDUP
NATIONAL WEATHER SERVICE PORTLAND OR
1200 PM PDT MON MAY 29 2017

NOTE: "FAIR" INDICATES FEW OR NO CLOUDS BELOW 12,000 FEET WITH
NO SIGNIFICANT WEATHER AND/OR OBSTRUCTIONS TO VISIBILITY.

ORZ001>013-292000-
NORTHWEST OREGON


CITY           SKY/WX    TMP DP  RH WIND       PRES   REMARKS
ASTORIA        CLOUDY    54  49  83 NW6       30.06S
NEWPORT        CLOUDY    54  52  94 N10       30.09F
PORTLAND       CLOUDY    60  51  72 N6        30.04S
VANCOUVER WA   CLOUDY    59  54  83 S3        30.03F
SCAPPOOSE      CLOUDY    61  53  75 CALM      30.03S
HILLSBORO      CLOUDY    60  53  77 CALM      30.03F
AURORA         CLOUDY    60  52  74 CALM      30.05S
MCMINNVILLE    CLOUDY    60  52  74 CALM      30.05S
SALEM          CLOUDY    61  52  72 CALM      30.04S
CORVALLIS      CLOUDY    63  52  67 CALM      30.06S
EUGENE         CLOUDY    57  54  89 CALM      30.05S
$$

ORZ021-028-292000-
SOUTHWEST OREGON


CITY           SKY/WX    TMP DP  RH WIND       PRES   REMARKS
NORTH BEND     CLOUDY    57  54  88 N8        30.09S
BROOKINGS      CLOUDY    54  49  83 W6        30.06F
ROSEBURG       CLOUDY    60  51  72 NW3       30.05S
SEXTON SUMMIT  SUNNY     70  55  59 CALM      30.06S
MEDFORD        SUNNY     81  56  42 N6        29.94F
$$

ORZ014>016-041-292000-
COLUMBIA GORGE


CITY           SKY/WX    TMP DP  RH WIND       PRES   REMARKS
TROUTDALE      CLOUDY    60  52  74 VRB5      30.04S
THE DALLES     SUNNY     82  54  37 VRB3      29.94F
$$

ORZ029>031-041-044-049-050-061>064-502-503-505>511-292000-
EASTERN OREGON


CITY           SKY/WX    TMP DP  RH WIND       PRES   REMARKS
REDMOND        SUNNY     86  32  14 N6        30.02F
BEND           SUNNY     82  34  17 SE3       29.98F
PRINEVILLE     SUNNY     84  37  18 VRB8      30.03F
KLAMATH FALLS  SUNNY     77  44  30 SE6       30.06F
HERMISTON      SUNNY     87  50  27 N5        29.95F
PENDLETON      SUNNY     86  53  32 N3        29.98F
JOHN DAY       SUNNY     83  37  18 NE3       30.08F
MEACHAM        PTSUNNY   79  34  19 CALM      30.10S
LA GRANDE      SUNNY     75  45  33 CALM      30.06F
BAKER CITY     SUNNY     81  46  29 NE5       30.09F
BURNS          SUNNY     80  31  16 NE10      30.12F
ROME             N/A     83  31  15 NE13      30.09F
ONTARIO        SUNNY     80  48  32 SE7       30.08F
$$




USA.gov is the U.S. government's official web portal to all federal, state and local government web resources and services.